This is the latest recevied weather packets stored in our database for station/object KC2BRB-1. If no packets are shown the sender has not sent any weather packets the latest 1 day(s).
| Time | Temp. | Humidity | Pressure | Rain* | Wind** | Luminosity | Snow |
|---|---|---|---|---|---|---|---|
| 1778033232 | 20.56° C | 80% | 1014 hPa | 0.25 mm | 0 m/s | - | - |
| 1778032932 | 20.56° C | 79% | 1013.6 hPa | 0.25 mm | 0 m/s | - | - |
| 1778032859 | 20.56° C | 79% | 1013.6 hPa | 0.25 mm | 0 m/s | - | - |
| 1778032632 | 20.56° C | 79% | 1013.6 hPa | 0.25 mm | 0 m/s | - | - |
| 1778032332 | 20.56° C | 79% | 1013.6 hPa | 0.25 mm | 0 m/s | - | - |
| 1778032292 | 20.56° C | 79% | 1013.6 hPa | 0.25 mm | 0 m/s | - | - |
| 1778032032 | 20.56° C | 79% | 1013.6 hPa | 0.25 mm | 0 m/s | - | - |
| 1778031732 | 21.11° C | 80% | 1013.4 hPa | 0.25 mm | 0 m/s | - | - |
| 1778031632 | 21.11° C | 80% | 1013.4 hPa | 0.25 mm | 0 m/s | - | - |
| 1778031432 | 21.11° C | 80% | 1013.4 hPa | 0.25 mm | 0 m/s | - | - |
| 1778031330 | 21.67° C | 77% | 1013.2 hPa | 0.25 mm | 0 m/s | - | - |
| 1778031132 | 21.67° C | 77% | 1013.2 hPa | 0.25 mm | 0 m/s | - | - |
| 1778030372 | 22.22° C | 78% | 1013.2 hPa | 0 mm | 0 m/s | - | - |
| 1778030232 | 22.22° C | 78% | 1013.2 hPa | 0 mm | 0 m/s | - | - |
| 1778029932 | 23.33° C | 67% | 1013.1 hPa | 0 mm | 0 m/s | - | - |
| 1778029791 | 23.33° C | 67% | 1013.1 hPa | 0 mm | 0 m/s | - | - |
| 1778029633 | 23.33° C | 67% | 1013.1 hPa | 0 mm | 0 m/s | - | - |
| 1778029535 | 23.33° C | 64% | 1013 hPa | 0 mm | 0 m/s | - | - |
| 1778029332 | 23.33° C | 64% | 1013 hPa | 0 mm | 0 m/s | - | - |
| 1778029204 | 23.33° C | 64% | 1013 hPa | 0 mm | 0 m/s | - | - |
| 1778029032 | 23.33° C | 64% | 1013 hPa | 0 mm | 0 m/s | - | - |
| 1778028728 | 23.89° C | 63% | 1013 hPa | 0 mm | 0 m/s | - | - |
| 1778028432 | 23.89° C | 63% | 1013 hPa | 0 mm | 0 m/s | - | - |
| 1778028133 | 23.89° C | 61% | 1012.7 hPa | 0 mm | 0 m/s | - | - |
| 1778028032 | 23.89° C | 61% | 1012.7 hPa | 0 mm | 0 m/s | - | - |
* Rain latest hour (hover to see other rain measurements)
** Current wind speed in m/s (hover to see current wind gust speed)